Theta_e
343 340 339 338 338 338 338 338 339 338 338 337 337 336 335 334 333 331 328 329 329 332 332 332 333 334 333 333 336 339 340 337 336 336 333 334 336 336 335 334 332 332 333
341 340 339 338 337 337 337 337 337 338 338 337 336 336 335 335 334 333 331 329 328 329 331 331 332 331 333 334 337 338 336 333 335 333 333 335 335 334 334 333 332 332 332
342 340 339 339 338 338 338 337 337 337 337 337 337 336 336 334 333 333 332 331 329 329 329 330 328 329 331 334 334 336 333 332 334 332 334 334 334 333 333 332 331 331 331
345 345 344 343 341 340 339 338 336 335 335 337 337 337 336 334 333 332 332 331 330 329 328 326 325 326 329 332 333 332 333 333 332 334 334 334 334 333 332 332 332 332 332
345 343 340 341 343 340 340 339 337 336 335 335 337 338 336 335 333 332 332 333 331 329 328 328 327 327 330 332 332 333 333 332 333 333 334 335 335 333 332 332 331 332 332
335 340 338 338 342 343 343 341 340 337 336 336 337 338 337 335 335 333 332 332 331 331 331 331 331 332 332 332 333 333 332 332 332 332 333 334 334 334 332 332 331 332 332
314 325 333 335 338 340 341 343 342 339 337 336 337 338 338 337 335 334 333 332 331 332 331 331 331 332 332 332 333 333 332 332 332 332 333 333 332 332 333 332 332 332 332
314 317 327 333 334 333 337 341 342 342 339 336 335 337 337 338 337 335 334 333 333 332 332 331 331 332 332 331 332 333 332 331 331 332 332 332 332 331 333 332 331 332 332
310 313 318 321 321 322 327 336 338 340 340 338 336 335 335 336 337 337 335 334 334 333 333 333 332 332 332 331 332 332 332 331 332 332 332 332 331 331 331 332 329 331 332
309 309 309 309 309 309 309 310 318 332 336 339 338 336 334 334 335 335 336 336 334 334 333 334 333 332 332 331 332 332 332 331 332 330 331 332 328 329 331 328 329 332 331
309 309 308 308 308 308 308 308 309 309 314 324 335 337 336 335 334 333 334 335 336 335 334 334 334 333 332 331 332 332 332 331 330 329 330 329 329 329 329 331 332 332 331
309 308 308 308 308 308 308 308 308 308 308 309 310 317 331 336 336 334 333 333 334 335 334 334 334 333 333 331 331 333 333 331 329 328 329 330 330 329 330 329 331 332 332
308 308 308 308 308 309 309 309 309 309 309 309 308 309 309 311 328 336 336 333 333 333 334 334 334 334 333 332 331 332 333 331 328 327 328 328 329 331 329 332 332 332 332
307 307 307 308 308 308 308 309 309 310 310 310 311 310 309 309 309 313 326 336 334 333 335 335 335 334 334 332 331 332 332 332 328 326 327 328 327 330 331 331 332 331 331
307 307 308 308 309 309 309 309 310 310 310 310 310 311 310 310 309 309 315 327 335 335 333 336 335 335 335 333 331 332 332 332 328 326 327 328 327 326 329 330 330 331 331
306 307 307 308 308 309 309 310 310 310 310 310 311 310 310 310 310 310 309 319 322 329 336 334 335 334 334 334 331 332 332 331 329 326 326 326 328 329 329 329 329 330 331
304 305 306 306 306 306 307 307 307 308 308 308 308 309 309 309 309 309 309 310 314 320 323 336 335 335 335 334 333 331 332 331 330 326 326 327 330 328 328 329 329 329 330
303 304 304 304 304 305 306 306 306 306 306 306 307 307 307 307 308 308 308 309 311 319 327 330 335 336 335 333 333 331 331 331 330 326 327 328 330 331 330 328 328 328 329
303 304 304 304 305 305 305 305 305 305 305 305 306 306 306 306 306 307 307 307 309 312 323 328 329 336 336 334 333 333 331 331 331 327 327 328 330 330 329 328 327 328 328
303 303 303 303 303 304 304 304 304 304 304 303 304 304 304 304 304 305 306 305 307 312 320 331 331 331 334 334 334 333 332 331 331 328 328 330 330 329 328 328 327 327 327
302 302 302 302 302 302 301 301 302 301 302 302 302 302 302 302 303 303 304 304 305 310 320 326 331 328 332 335 336 337 333 332 331 330 331 330 330 329 329 328 328 327 327
301 301 301 301 301 299 297 296 295 294 295 295 296 296 298 300 300 301 302 303 303 306 312 325 325 330 329 328 334 334 333 333 332 331 331 331 330 330 328 328 327 326 327
299 300 301 300 299 298 296 295 293 293 292 292 293 295 296 297 297 299 300 302 302 308 310 319 321 322 322 327 332 332 331 330 331 331 330 331 331 331 329 327 326 326 326
298 299 300 300 300 299 297 295 290 290 290 291 293 295 296 298 298 298 299 301 301 305 308 316 319 323 321 318 323 333 331 331 331 332 330 331 330 330 331 329 327 327 325
297 298 299 299 300 298 296 290 289 289 289 290 291 293 297 300 300 299 300 300 301 302 306 314 322 326 325 323 325 329 332 331 330 331 331 330 331 330 331 330 328 327 326
295 296 297 298 298 298 294 290 288 288 289 289 290 291 294 296 298 301 300 301 303 304 305 314 320 325 324 323 324 326 329 331 331 330 330 331 329 330 330 330 329 328 328
Wind_Speed
9 5 3 2 2 2 4 5 5 5 5 5 6 8 9 10 11 9 5 4 5 7 8 9 10 10 9 8 5 6 6 3 3 3 2 3 8 10 11 12 12 13 14
11 6 4 1 1 3 4 5 6 6 6 5 5 7 8 9 9 10 7 3 4 6 7 9 10 10 10 9 7 6 5 4 5 3 2 6 10 13 14 13 13 12 12
14 11 8 6 5 6 5 6 6 7 7 6 6 7 8 9 9 9 8 6 5 6 8 10 10 10 11 11 8 7 7 7 6 3 4 9 12 14 15 16 14 14 12
12 11 9 7 6 4 4 6 8 8 7 7 8 8 9 10 10 9 8 6 6 7 8 10 10 10 11 11 9 9 7 7 6 5 6 9 12 13 13 14 11 13 14
8 7 6 5 4 3 1 2 3 6 8 9 9 9 10 11 11 11 10 9 9 8 9 10 10 11 11 11 10 9 8 8 7 7 7 10 12 12 14 15 13 14 16
4 3 2 2 2 2 1 1 3 4 5 8 10 11 11 12 12 12 12 11 11 10 10 10 11 11 12 12 11 10 10 9 8 8 8 10 11 12 14 14 13 17 15
2 1 2 1 0 2 4 5 4 4 7 7 10 11 12 13 13 14 14 13 13 12 12 11 12 12 13 13 12 11 11 10 10 9 9 10 10 9 12 12 15 15 18
4 3 1 2 4 5 6 6 7 7 6 8 9 11 13 14 16 16 16 16 15 14 14 13 13 14 15 14 14 13 12 12 11 11 10 10 11 11 12 14 13 14 19
7 5 5 4 5 5 6 7 8 8 9 8 10 11 12 15 17 18 18 18 18 17 16 15 15 15 16 16 15 15 14 13 13 13 12 11 12 13 13 16 13 16 18
4 6 6 7 8 8 9 9 9 11 12 10 11 11 13 14 17 19 21 21 21 20 20 18 17 16 17 18 17 17 16 14 14 14 14 12 11 13 13 14 17 18 20
6 7 7 8 10 11 11 10 9 8 9 11 13 13 14 16 17 19 22 23 23 23 23 20 19 19 19 20 19 18 17 17 16 16 15 12 11 13 13 13 16 17 17
9 10 11 10 10 10 12 12 11 11 11 11 12 13 14 18 20 20 23 23 25 25 25 24 22 21 21 23 22 21 21 19 18 17 16 15 14 14 14 16 18 19 18
13 14 14 15 14 13 13 14 13 13 13 14 15 16 17 16 18 20 23 25 26 26 28 27 26 26 25 25 25 24 23 20 20 19 19 17 16 15 15 18 18 19 20
14 17 19 21 21 20 20 20 19 19 18 19 20 22 21 23 21 19 23 26 27 29 31 32 31 30 28 28 27 26 25 23 22 21 20 19 17 15 16 17 19 20 21
14 16 18 20 22 25 27 27 28 29 30 29 28 27 27 26 26 26 23 24 28 31 33 36 35 34 32 31 30 29 28 26 23 23 21 20 18 17 18 19 19 21 22
17 19 20 21 22 24 26 30 32 34 36 37 36 33 31 32 32 31 30 28 26 31 34 37 39 38 36 33 32 32 30 28 26 25 22 22 20 20 20 19 19 20 21
23 23 25 26 28 29 31 32 33 34 36 38 39 38 34 34 35 36 36 35 34 30 34 38 41 42 41 38 35 34 33 31 29 27 25 23 20 20 21 21 19 19 21
25 27 29 31 32 33 34 35 36 36 37 36 37 38 37 34 34 37 40 41 38 33 35 35 41 45 45 41 39 38 36 34 31 29 27 25 22 21 20 20 20 20 21
25 27 29 30 31 32 33 34 34 34 35 35 34 34 34 33 32 35 39 43 44 41 35 38 37 46 45 45 41 40 38 36 34 31 31 28 25 22 20 19 20 21 21
25 27 29 31 33 34 35 34 34 33 33 33 34 33 31 33 29 30 37 42 46 44 40 35 40 41 48 47 43 41 40 38 36 34 33 30 27 23 19 18 19 23 22
26 28 31 33 33 35 36 37 37 36 34 33 33 34 30 29 30 27 32 37 41 42 41 33 42 40 51 46 41 38 41 41 38 37 35 33 31 27 22 21 21 21 24
27 29 31 33 33 33 34 36 35 37 36 35 32 30 30 28 29 27 29 35 32 34 39 36 39 39 40 45 46 33 24 33 40 42 39 37 35 31 27 26 26 23 23
27 29 31 32 34 34 35 37 37 37 34 33 32 31 29 27 26 27 28 31 32 32 40 41 31 39 45 42 58 30 20 18 31 36 46 43 40 38 34 31 30 27 26
26 27 29 32 35 36 38 38 37 35 37 37 36 32 29 25 26 25 26 29 34 31 32 34 33 38 40 53 46 46 27 22 22 18 33 46 42 42 39 35 35 32 28
25 27 29 32 35 37 38 34 31 33 35 35 33 32 28 25 23 23 24 26 28 29 34 33 33 32 32 48 46 32 44 36 28 24 20 36 46 46 42 39 36 35 31
24 26 29 31 34 37 37 32 30 32 33 34 34 32 31 31 29 23 21 22 25 24 29 32 34 32 34 36 50 39 53 42 37 32 25 27 49 47 47 44 42 38 37
Wind_Direction
8 138 145 144 197 230 238 241 237 232 218 193 178 177 176 168 158 143 133 146 163 180 188 183 186 185 182 186 194 186 196 202 230 232 237 176 162 160 158 152 151 154 146
45 90 99 79 313 286 277 262 258 256 245 219 192 186 187 184 174 165 151 165 188 195 194 190 194 192 187 192 192 201 216 234 237 234 193 160 158 158 157 155 159 152 152
63 66 58 38 7 333 305 289 273 257 249 236 212 197 197 197 192 187 177 177 201 200 203 199 202 199 195 206 212 227 238 239 227 225 190 167 166 164 164 162 161 156 162
82 77 64 48 28 18 349 325 310 293 269 243 227 214 206 204 206 205 198 203 211 207 201 204 206 203 204 210 222 239 238 221 221 218 187 178 173 178 172 164 158 163 163
84 90 97 102 98 83 34 334 323 316 296 274 247 228 217 213 212 214 211 212 212 217 212 208 207 208 213 222 230 236 221 221 218 209 188 185 190 185 176 171 170 176 169
96 118 96 80 62 41 157 245 283 270 287 277 261 244 230 223 222 221 217 217 213 216 217 217 217 219 223 230 231 224 223 225 219 215 196 186 188 195 192 190 192 182 183
83 186 185 177 344 330 312 293 267 226 254 260 265 250 242 234 229 228 227 222 217 222 224 223 226 227 230 233 230 224 225 228 223 215 199 186 192 205 201 204 187 192 186
73 60 254 282 316 316 325 304 297 286 242 247 255 262 251 242 237 233 230 228 228 227 230 231 230 231 235 235 233 229 226 231 225 222 214 202 202 207 214 191 200 201 183
65 57 51 37 19 0 341 318 320 324 311 246 243 250 258 258 246 241 236 234 235 235 234 235 236 233 237 238 232 231 227 229 227 225 223 221 222 213 210 208 221 198 182
4 350 346 349 351 349 356 3 348 318 317 318 269 252 251 249 255 255 245 238 237 238 237 237 238 235 237 240 235 231 227 228 226 226 226 240 233 207 196 207 204 193 188
351 340 343 334 323 318 317 316 318 327 324 312 297 279 265 260 254 253 253 250 241 240 240 238 241 238 235 240 238 233 226 228 225 226 226 228 207 192 200 201 202 197 200
343 345 334 330 324 318 319 320 317 310 305 305 308 300 286 280 269 260 255 253 252 244 243 240 238 240 235 237 236 231 229 228 226 224 224 221 218 212 220 212 209 198 200
338 331 330 328 325 318 314 312 311 312 313 313 303 292 290 284 277 275 267 257 250 247 243 238 236 236 234 236 237 233 234 228 227 224 223 223 229 231 221 212 209 202 204
336 332 329 325 323 322 317 310 304 298 299 302 302 299 291 285 281 272 272 265 258 249 247 240 237 237 237 237 237 236 235 232 229 226 225 224 225 227 220 217 213 213 211
331 328 324 321 318 315 314 311 306 302 298 296 293 290 287 282 279 276 267 261 265 254 247 244 240 237 237 238 237 235 234 234 230 227 225 225 228 229 221 217 216 217 215
338 333 329 323 318 314 309 307 305 303 300 297 293 288 282 276 272 268 266 263 252 264 252 246 243 239 238 237 238 236 234 234 231 229 225 222 224 224 221 220 221 221 217
342 337 332 329 327 324 320 315 310 305 302 299 296 292 284 276 267 263 259 258 256 250 263 250 246 240 236 236 236 237 235 234 232 228 224 219 220 218 220 222 223 220 218
345 343 341 340 336 331 325 320 316 313 309 304 300 296 291 283 271 260 256 252 251 249 248 254 249 243 237 233 233 234 234 233 232 228 224 220 218 218 219 222 223 220 217
347 344 341 338 334 328 324 321 318 315 311 308 304 300 295 288 277 265 255 248 246 243 244 251 249 239 236 235 232 234 233 232 231 228 224 220 219 220 224 225 224 223 219
354 353 349 346 342 337 333 328 323 319 317 314 311 307 300 292 284 267 257 249 243 241 238 245 244 240 234 238 232 233 234 231 230 227 223 221 216 216 222 223 223 222 220
2 2 360 355 351 345 340 337 332 327 323 319 315 312 308 295 286 273 259 255 246 242 235 235 241 242 235 226 230 228 232 231 229 225 222 222 219 215 224 230 228 224 221
8 7 4 1 356 352 346 343 340 336 332 329 325 317 314 305 292 279 263 255 247 245 238 230 236 235 241 230 220 219 219 225 227 224 222 224 224 220 217 230 233 231 223
10 9 6 4 0 356 351 348 343 338 334 328 325 325 325 320 307 289 273 253 248 245 240 230 245 231 245 230 218 208 208 217 221 226 222 225 225 227 224 221 230 233 226
10 8 6 6 3 360 356 351 345 338 332 332 330 325 321 320 315 309 289 271 251 240 239 233 231 239 247 231 241 213 217 214 206 209 220 224 222 227 228 226 225 229 226
10 8 7 6 4 3 357 350 341 339 335 330 331 329 325 320 315 308 299 288 268 258 236 228 227 237 239 224 221 231 222 218 213 217 215 214 221 225 225 227 226 227 228
9 7 8 8 7 4 358 349 347 343 339 338 336 332 330 321 317 312 296 286 282 267 231 220 230 228 233 227 218 227 222 218 216 212 216 213 218 221 223 226 227 228 230